This demonstration page uses our WeatherBlox Daily Observations layout. Learn more.

Left ArrowRight Arrow

Hourly Observations for November 14, 2020

Temp ( °F °C ) Dew Point ( °F °C ) Humidity (%) Winds ( mph kmh ) Pressure ( in mb ) Visibility ( mi km ) Precip ( " mm )
12:52 am 00:52 Clear 32 0 23 -5 69 69 SSE 13 20 29.83 1010 10 16 0.00 0.00
1:52 am 01:52 Mostly Clear 33 0.6 24 -4.4 70 70 S 8 13 29.80 1009 10 16 0.00 0.00
2:52 am 02:52 Partly Cloudy 31 -0.6 24 -4.4 76 76 SSE 7 11 29.77 1008 10 16 0.00 0.00
3:52 am 03:52 Partly Cloudy 35 1.7 26 -3.3 70 70 SSE 13 20 29.72 1006 10 16 0.00 0.00
4:52 am 04:52 Partly Cloudy 35 1.7 26 -3.3 70 70 SSE 10 17 29.69 1005 10 16 0.00 0.00
5:52 am 05:52 Mostly Cloudy 34 1.1 27 -2.8 76 76 SSE 13 20 29.64 1004 10 16 0.00 0.00
6:52 am 06:52 Mostly Cloudy 37 2.8 29 -1.7 73 73 SSE 14 22 29.60 1002 10 16 0.00 0.00
7:52 am 07:52 Mostly Cloudy 39 3.9 32 0 76 76 S 9 15 29.58 1002 10 16 0.00 0.00
8:52 am 08:52 Mostly Cloudy 44 6.7 36 2.2 73 73 SSE 14 22 29.58 1002 10 16 0.00 0.00
9:52 am 09:52 Mostly Cloudy 47 8.3 40 4.4 77 77 S 17 28 29.53 1000 10 16 0.00 0.00
10:52 am 10:52 Mostly Cloudy 51 10.6 42 5.6 71 71 S 15 24 29.50 999 10 16 0.00 0.00
11:52 am 11:52 Mostly Cloudy 57 13.9 43 6.1 60 60 S 18 30 29.44 997 10 16 0.00 0.00
12:52 pm 12:52 Mostly Cloudy 58 14.4 42 5.6 56 56 SSW 16 26 29.41 996 10 16 0.00 0.00
1:52 pm 13:52 Mostly Cloudy 58 14.4 42 5.6 56 56 SW 14 22 29.38 995 10 16 0.00 0.00
2:52 pm 14:52 Mostly Cloudy 57 13.9 39 3.9 51 51 WSW 12 19 29.41 996 10 16 0.00 0.00
3:52 pm 15:52 Mostly Cloudy 54 12.2 37 2.8 53 53 WSW 12 19 29.41 996 10 16 0.00 0.00
4:52 pm 16:52 Cloudy 53 11.7 36 2.2 52 52 W 8 13 29.46 998 10 16 0.00 0.00
5:52 pm 17:52 Cloudy 51 10.6 35 1.7 54 54 NW 7 11 29.49 999 10 16 0.00 0.00
6:52 pm 18:52 Cloudy 48 8.9 36 2.2 63 63 WNW 9 15 29.52 1000 10 16 0.00 0.00
7:52 pm 19:52 Cloudy 49 9.4 35 1.7 59 59 WNW 9 15 29.54 1001 10 16 0.00 0.00
8:52 pm 20:52 Mostly Cloudy 48 8.9 33 0.6 56 56 WNW 12 19 29.57 1001 10 16 0.00 0.00
9:52 pm 21:52 Cloudy 49 9.4 32 0 52 52 NW 18 30 29.58 1002 10 16 0.00 0.00
10:52 pm 22:52 Cloudy 45 7.2 33 0.6 63 63 WNW 29 46 29.62 1003 10 16 0.00 0.00
11:43 pm 23:43 Cloudy with Light Rain 42 5.6 34 1.1 73 73 NW 29 46 29.69 1005 10 16 0.00 0.00
11:52 pm 23:52 Cloudy with Light Rain 42 5.6 34 1.1 73 73 NW 26 43 29.66 1004 10 16 0.00 0.00

Powered by AerisWeather